GW4436 Weather Reports


time (UTC)temp
F
wind
direction
speed
knots
gust
knots
rain 1hr
in
rain 24hr
in
rain mn
in
humidity
%
barometer
mb
20260906123037 78 238 3.5 5.2 0.00 0.00 0.00 94 1013.5
20260906121523 77 266 1.7 4.3 0.00 0.00 0.00 95 1013.6
20260906120008 77 232 0.0 1.7 0.00 0.00 0.00 95 1013.5
20260906114518 76 252 0.9 2.6 0.00 0.00 0.00 95 1013.5
20260906113020 76 309 0.0 1.7 0.00 0.00 0.00 95 1013.3
20260906111529 76 294 0.9 3.5 0.00 0.00 0.00 95 1013.1
20260906110010 76 302 0.9 3.5 0.00 0.00 0.00 95 1012.9
20260906104518 76 288 0.9 3.5 0.00 0.00 0.00 95 1012.6
20260906103023 77 216 0.9 2.6 0.00 0.00 0.00 94 1012.5
20260906101530 77 207 0.9 3.5 0.00 0.00 0.00 94 1012.3
20260906100008 77 232 0.9 5.2 0.00 0.00 0.00 94 1012.4
20260906094502 77 249 0.9 5.2 0.00 0.00 0.00 94 1012.3
20260906093004 77 260 0.9 4.3 0.00 0.00 0.00 94 1012.3
20260906091504 77 281 1.7 4.3 0.00 0.00 0.00 94 1012.3
20260906090008 77 214 1.7 3.5 0.00 0.00 0.00 94 1012.3
20260906084504 77 251 0.9 2.6 0.00 0.00 0.00 94 1012.1
20260906083005 77 291 0.9 4.3 0.00 0.00 0.00 94 1011.9
20260906081506 77 257 0.9 3.5 0.00 0.00 0.00 93 1012.0
20260906080004 78 251 0.0 2.6 0.00 0.00 0.00 93 1012.2
20260906074504 78 298 0.9 2.6 0.00 0.00 0.00 93 1012.1
20260906073003 78 253 1.7 2.6 0.00 0.00 0.00 93 1012.3
20260906071503 78 274 1.7 3.5 0.00 0.00 0.00 93 1012.2
20260906070003 78 286 2.6 5.2 0.00 0.00 0.00 93 1012.3
20260906064503 78 273 2.6 4.3 0.00 0.00 0.00 93 1012.3
20260906063006 78 284 0.9 5.2 0.00 0.00 0.00 92 1012.3
20260906061506 78 257 1.7 4.3 0.00 0.00 0.00 92 1012.6
20260906060003 78 205 2.6 3.5 0.00 0.00 0.00 92 1012.8
20260906054506 79 281 0.0 1.7 0.00 0.00 0.00 91 1012.9
20260906053008 79 216 1.7 3.5 0.00 0.00 0.00 91 1012.9
20260906051508 79 214 0.9 6.1 0.00 0.00 0.00 91 1012.9
20260906050006 79 194 2.6 4.3 0.00 0.00 0.00 91 1013.0
20260906044506 79 237 1.7 4.3 0.00 0.00 0.00 91 1012.9
20260906043008 80 221 1.7 4.3 0.00 0.00 0.00 91 1012.9
20260906041509 80 203 1.7 4.3 0.00 0.00 0.00 91 1012.7
20260906040025 80 197 2.6 3.5 0.00 0.00 0.00 91 1013.0
20260906034506 80 202 1.7 2.6 0.00 0.00 0.00 90 1013.2
20260906033009 81 184 0.9 1.7 0.00 0.00 0.00 90 1013.4
20260906031503 81 185 0.0 2.6 0.00 0.00 0.00 89 1013.6
20260906030003 81 197 0.9 2.6 0.00 0.00 0.00 89 1013.5
20260906024503 82 230 0.9 1.7 0.00 0.00 0.00 89 1013.6
20260906023007 82 207 0.9 1.7 0.00 0.00 0.00 89 1013.5
20260906021530 82 194 0.9 1.7 0.00 0.00 0.00 89 1013.4
20260906020019 83 178 0.9 1.7 0.00 0.00 0.00 87 1013.3
20260906014532 83 198 0.9 2.6 0.00 0.00 0.00 87 1013.0
20260906013004 83 218 0.9 1.7 0.00 0.00 0.00 88 1012.8
20260906011514 82 187 0.0 1.7 0.00 0.00 0.00 89 1012.5
20260906010016 82 152 0.9 2.6 0.00 0.00 0.00 91 1012.5
20260906004504 82 188 1.7 2.6 0.00 0.00 0.00 89 1012.2
20260906003016 83 143 0.9 1.7 0.00 0.00 0.00 88 1012.0
20260906001518 84 143 0.0 2.6 0.00 0.00 0.00 86 1012.0
20260906000020 85 112 0.0 1.7 0.00 0.00 0.00 84 1011.8
20260905234504 86 229 0.0 0.0 0.00 0.00 0.00 83 1011.8
20260905233005 88 229 0.0 0.9 0.00 0.00 0.00 80 1011.8
20260905231527 89 231 0.0 1.7 0.00 0.00 0.00 75 1011.8
20260905230020 90 238 0.0 1.7 0.00 0.00 0.00 76 1011.9
20260905224520 89 312 0.0 1.7 0.00 0.00 0.00 71 1012.2
20260905223026 89 312 0.0 0.9 0.00 0.00 0.00 76 1012.4
20260905221516 89 255 0.9 1.7 0.00 0.00 0.00 71 1012.4
20260905220011 90 273 0.9 2.6 0.00 0.00 0.00 69 1012.4
20260905214530 90 311 2.6 4.3 0.00 0.00 0.00 67 1012.4
20260905213023 91 273 1.7 5.2 0.00 0.01 0.00 64 1012.6
20260905211528 91 320 1.7 5.2 0.00 0.02 0.00 65 1012.7
20260905210013 91 222 2.6 6.1 0.00 0.04 0.00 67 1012.7
20260905204534 90 350 2.6 6.1 0.00 0.07 0.00 67 1012.7
20260905203028 90 245 1.7 7.0 0.00 0.09 0.00 69 1012.7
20260905201528 90 299 2.6 4.3 0.00 0.09 0.00 71 1012.7
20260905200006 89 293 4.3 7.8 0.00 0.10 0.00 68 1012.6
20260905194519 90 255 4.3 8.7 0.00 0.12 0.00 68 1012.7
20260905193022 89 331 5.2 8.7 0.00 0.15 0.00 72 1013.1
20260905191536 89 317 2.6 6.1 0.00 0.23 0.00 72 1013.3
20260905190031 88 338 5.2 7.0 0.00 0.33 0.00 72 1013.4
20260905184525 88 334 6.1 9.6 0.00 0.40 0.00 73 1013.6
20260905183031 88 282 2.6 8.7 0.00 1.21 0.00 73 1013.7
20260905181527 88 298 4.3 8.7 0.00 1.77 0.00 74 1013.9
20260905180006 87 278 2.6 7.0 0.00 2.18 0.00 76 1014.0
20260905174535 87 352 6.1 9.6 0.00 2.35 0.00 76 1014.2
20260905173035 86 326 3.5 7.0 0.00 2.35 0.00 80 1014.6
20260905171536 86 334 4.3 7.8 0.00 2.35 0.00 80 1015.0
20260905170029 85 233 2.6 8.7 0.00 2.35 0.00 81 1015.1
20260905164508 84 21 1.7 4.3 0.00 2.35 0.00 84 1015.4
20260905163037 85 330 5.2 7.0 0.00 2.35 0.00 80 1015.7
20260905161528 84 277 4.3 7.0 0.00 2.35 0.00 83 1015.8
20260905160001 83 359 3.5 7.0 0.00 2.35 0.00 87 1016.0
20260905154539 83 319 3.5 7.0 0.00 2.35 0.00 86 1016.1
20260905153014 82 300 0.9 4.3 0.00 2.35 0.00 90 1016.2
20260905151532 81 288 3.5 6.1 0.00 2.35 0.00 90 1016.4
20260905150004 80 246 2.6 4.3 0.00 2.35 0.00 93 1016.4
20260905144508 79 309 2.6 5.2 0.00 2.35 0.00 95 1016.3
20260905143013 78 330 1.7 4.3 0.00 2.35 0.00 97 1016.2
20260905141535 77 357 1.7 6.1 0.00 2.35 0.00 97 1016.3
20260905140023 77 327 2.6 4.3 0.00 2.35 0.00 98 1016.3
20260905134503 77 337 0.9 2.6 0.00 2.35 0.00 98 1016.1
20260905133010 76 263 1.7 3.5 0.00 2.35 0.00 98 1016.0
20260905131536 76 269 0.9 3.5 0.00 2.35 0.00 98 1016.1
20260905130022 75 344 0.9 2.6 0.00 2.35 0.00 98 1016.2
20260905124526 75 326 0.0 1.7 0.00 2.35 0.00 97 1016.0